RYR89DJ LERS-EICK

Flight info

Callsign RYR89DJ
Flight time 2h 4m
Altitude 35000
Route POSSY M601 MARIO/N0436F370 M601 BLV/N0433F360 N75 DELOG DCT KOLEK DCT AMPOP DCT ARKIL DCT ERTER ERTER1R
Aircraft B738/M-SDE2E3FGHIRWXY/LB1

Departure

Time 2026-04-23 14:27
Airport Reus Airport (LERS)

Arrival

Time 2026-04-23 16:31
Airport Cork International Airport (EICK)
Time Latitude Longitude Altitude Speed Heading
2026-04-23 13:53 41.14646 1.15502 241 ft 0 kts 338°
2026-04-23 14:19 41.14644 1.15503 241 ft 2 kts 338°
2026-04-23 14:19 41.14619 1.15515 241 ft 4 kts 338°
2026-04-23 14:19 41.14598 1.15526 241 ft 4 kts 332°
2026-04-23 14:20 41.14579 1.15546 241 ft 4 kts 287°
2026-04-23 14:20 41.14581 1.15579 241 ft 4 kts 243°
2026-04-23 14:20 41.14591 1.15604 241 ft 0 kts 249°
2026-04-23 14:23 41.14591 1.15602 241 ft 1 kts 249°
2026-04-23 14:23 41.14579 1.15578 241 ft 5 kts 226°
2026-04-23 14:23 41.14535 1.15569 241 ft 7 kts 164°
2026-04-23 14:23 41.14519 1.15577 241 ft 0 kts 157°
2026-04-23 14:25 41.14518 1.15577 241 ft 0 kts 157°
2026-04-23 14:25 41.14503 1.15586 241 ft 5 kts 159°
2026-04-23 14:25 41.14452 1.15611 241 ft 9 kts 159°
2026-04-23 14:26 41.14437 1.15684 241 ft 11 kts 69°
2026-04-23 14:26 41.14531 1.16007 241 ft 74 kts 69°
2026-04-23 14:26 41.14803 1.16941 242 ft 140 kts 68°
2026-04-23 14:26 41.15208 1.18274 719 ft 157 kts 73°
2026-04-23 14:27 41.15584 1.19600 1678 ft 157 kts 72°
2026-04-23 14:27 41.15999 1.21063 2108 ft 186 kts 70°
2026-04-23 14:27 41.16498 1.22773 2488 ft 210 kts 71°
2026-04-23 14:27 41.17053 1.24692 2746 ft 239 kts 71°
2026-04-23 14:28 41.17664 1.26828 3580 ft 246 kts 70°
2026-04-23 14:28 41.18296 1.28936 4366 ft 259 kts 70°
2026-04-23 14:28 41.19148 1.31105 5230 ft 269 kts 51°
2026-04-23 14:28 41.20651 1.32562 6252 ft 276 kts 26°
2026-04-23 14:29 41.22557 1.33187 6970 ft 287 kts
2026-04-23 14:29 41.24514 1.32743 7891 ft 287 kts 334°
2026-04-23 14:29 41.26153 1.31319 8968 ft 280 kts 315°
2026-04-23 14:29 41.27482 1.29517 10146 ft 271 kts 311°
2026-04-23 14:30 41.28785 1.27661 10833 ft 282 kts 311°
2026-04-23 14:30 41.30179 1.25652 11034 ft 309 kts 311°
2026-04-23 14:30 41.31679 1.23485 11410 ft 326 kts 311°
2026-04-23 14:30 41.33237 1.21242 12111 ft 333 kts 311°
2026-04-23 14:31 41.34818 1.18967 12834 ft 338 kts 311°
2026-04-23 14:31 41.36434 1.16656 13601 ft 343 kts 311°
2026-04-23 14:31 41.38064 1.14333 14407 ft 344 kts 311°
2026-04-23 14:31 41.39700 1.12001 15192 ft 345 kts 311°
2026-04-23 14:32 41.41344 1.09658 15965 ft 345 kts 311°
2026-04-23 14:32 41.42993 1.07304 16619 ft 352 kts 312°
2026-04-23 14:32 41.44676 1.04900 17183 ft 358 kts 312°
2026-04-23 14:32 41.46376 1.02469 18034 ft 356 kts 312°
2026-04-23 14:33 41.48068 1.00047 18685 ft 361 kts 312°
2026-04-23 14:33 41.49790 0.97580 19232 ft 365 kts 312°
2026-04-23 14:33 41.51528 0.95089 19824 ft 368 kts 312°
2026-04-23 14:33 41.53279 0.92578 20348 ft 373 kts 312°
2026-04-23 14:34 41.55058 0.90025 20886 ft 377 kts 312°
2026-04-23 14:34 41.56844 0.87460 21536 ft 378 kts 312°
2026-04-23 14:34 41.58627 0.84895 21996 ft 384 kts 312°
2026-04-23 14:34 41.60452 0.82266 22509 ft 388 kts 312°
2026-04-23 14:35 41.62289 0.79619 23091 ft 390 kts 312°
2026-04-23 14:35 41.64139 0.76949 23668 ft 392 kts 312°
2026-04-23 14:35 41.65999 0.74262 24090 ft 396 kts 312°
2026-04-23 14:35 41.67884 0.71538 24488 ft 400 kts 312°
2026-04-23 14:36 41.69778 0.68798 24950 ft 402 kts 312°
2026-04-23 14:36 41.71679 0.66046 25417 ft 403 kts 312°
2026-04-23 14:36 41.73590 0.63278 25843 ft 405 kts 312°
2026-04-23 14:36 41.75507 0.60498 26276 ft 407 kts 312°
2026-04-23 14:37 41.77432 0.57704 26707 ft 409 kts 312°
2026-04-23 14:37 41.79365 0.54895 27146 ft 411 kts 312°
2026-04-23 14:37 41.80675 0.52990 27453 ft 412 kts 312°
2026-04-23 14:37 41.82623 0.50157 27876 ft 414 kts 312°
2026-04-23 14:38 41.84575 0.47314 28267 ft 416 kts 312°
2026-04-23 14:38 41.86539 0.44449 28630 ft 418 kts 312°
2026-04-23 14:38 41.88485 0.41608 29000 ft 420 kts 312°
2026-04-23 14:38 41.90468 0.38710 29376 ft 422 kts 312°
2026-04-23 14:39 41.92485 0.35758 29663 ft 426 kts 311°
2026-04-23 14:39 41.94472 0.32849 29933 ft 430 kts 311°
2026-04-23 14:39 41.96492 0.29888 30375 ft 429 kts 311°
2026-04-23 14:39 41.98504 0.26937 30833 ft 426 kts 311°
2026-04-23 14:40 42.00494 0.24015 31341 ft 422 kts 311°
2026-04-23 14:40 42.02472 0.21107 31813 ft 420 kts 311°
2026-04-23 14:40 42.04441 0.18210 32187 ft 419 kts 311°
2026-04-23 14:40 42.06261 0.15150 32479 ft 419 kts 303°
2026-04-23 14:41 42.07710 0.11751 32839 ft 418 kts 296°
2026-04-23 14:41 42.08989 0.08252 33277 ft 416 kts 296°
2026-04-23 14:41 42.10257 0.04761 33681 ft 414 kts 296°
2026-04-23 14:41 42.11529 0.01282 34037 ft 414 kts 296°
2026-04-23 14:42 42.12808 -0.02197 34324 ft 414 kts 296°
2026-04-23 14:42 42.14094 -0.05675 34518 ft 416 kts 296°
2026-04-23 14:42 42.15388 -0.09167 34825 ft 416 kts 296°
2026-04-23 14:42 42.16678 -0.12647 35186 ft 413 kts 296°
2026-04-23 14:43 42.17958 -0.16112 35509 ft 412 kts 296°
2026-04-23 14:43 42.19220 -0.19527 35729 ft 412 kts 295°
2026-04-23 14:43 42.20497 -0.22993 35971 ft 413 kts 295°
2026-04-23 14:43 42.21772 -0.26454 36264 ft 411 kts 295°
2026-04-23 14:44 42.23042 -0.29908 36547 ft 410 kts 295°
2026-04-23 14:44 42.24311 -0.33359 36803 ft 410 kts 295°
2026-04-23 14:44 42.25576 -0.36805 37087 ft 409 kts 295°
2026-04-23 14:44 42.26845 -0.40267 37093 ft 413 kts 295°
2026-04-23 14:45 42.29393 -0.47230 37122 ft 412 kts 295°
2026-04-23 14:45 42.31915 -0.54138 37111 ft 409 kts 295°
2026-04-23 14:46 42.34424 -0.61026 37122 ft 407 kts 295°
2026-04-23 14:46 42.36917 -0.67888 37109 ft 405 kts 295°
2026-04-23 14:47 42.39397 -0.74730 37113 ft 404 kts 295°
2026-04-23 14:47 42.41871 -0.81571 37091 ft 405 kts 295°
2026-04-23 14:48 42.44346 -0.88434 37102 ft 407 kts 295°
2026-04-23 14:48 42.46828 -0.95339 37093 ft 408 kts 295°
2026-04-23 14:49 42.49315 -1.02272 37096 ft 410 kts 295°
2026-04-23 14:49 42.51810 -1.09245 37085 ft 412 kts 295°
2026-04-23 14:50 42.54315 -1.16259 37069 ft 415 kts 294°
2026-04-23 14:50 42.56830 -1.23318 37071 ft 416 kts 294°
2026-04-23 14:51 42.59332 -1.30355 37074 ft 416 kts 294°
2026-04-23 14:51 42.61842 -1.37438 37079 ft 416 kts 294°
2026-04-23 14:52 42.64346 -1.44511 37069 ft 416 kts 294°
2026-04-23 14:52 42.66845 -1.51586 37079 ft 414 kts 294°
2026-04-23 14:53 42.69326 -1.58645 37073 ft 414 kts 294°
2026-04-23 14:53 42.71805 -1.65710 37076 ft 413 kts 294°
2026-04-23 14:54 42.74425 -1.72663 37078 ft 414 kts 300°
2026-04-23 14:54 42.77567 -1.79231 37069 ft 415 kts 301°
2026-04-23 14:55 42.80720 -1.85812 37071 ft 415 kts 301°
2026-04-23 14:55 42.83839 -1.92455 37041 ft 416 kts 300°
2026-04-23 14:56 42.86948 -1.99104 37045 ft 416 kts 300°
2026-04-23 14:56 42.90064 -2.05773 37045 ft 417 kts 300°
2026-04-23 14:57 42.93162 -2.12418 37047 ft 417 kts 300°
2026-04-23 14:57 42.96270 -2.19103 37026 ft 417 kts 300°
2026-04-23 14:58 42.99373 -2.25780 37038 ft 415 kts 300°
2026-04-23 14:58 43.02493 -2.32418 37013 ft 416 kts 300°
2026-04-23 14:59 43.05619 -2.39076 37039 ft 416 kts 300°
2026-04-23 14:59 43.08739 -2.45743 37019 ft 417 kts 300°
2026-04-23 15:00 43.11862 -2.52422 37013 ft 417 kts 300°
2026-04-23 15:00 43.14982 -2.59133 37025 ft 418 kts 300°
2026-04-23 15:01 43.18106 -2.65843 36999 ft 418 kts 300°
2026-04-23 15:01 43.21225 -2.72589 37009 ft 419 kts 300°
2026-04-23 15:02 43.24344 -2.79323 36998 ft 422 kts 300°
2026-04-23 15:02 43.27452 -2.86145 37001 ft 423 kts 300°
2026-04-23 15:03 43.30904 -2.92724 36992 ft 428 kts 311°
2026-04-23 15:03 43.35510 -2.97977 37007 ft 433 kts 320°
2026-04-23 15:04 43.40365 -3.02885 36995 ft 433 kts 320°
2026-04-23 15:04 43.45202 -3.07835 36984 ft 433 kts 320°
2026-04-23 15:05 43.50018 -3.12825 36997 ft 433 kts 320°
2026-04-23 15:05 43.54812 -3.17821 36990 ft 432 kts 320°
2026-04-23 15:06 43.59599 -3.22817 37013 ft 431 kts 320°
2026-04-23 15:06 43.64384 -3.27827 37003 ft 432 kts 320°
2026-04-23 15:07 43.69151 -3.32796 37001 ft 431 kts 320°
2026-04-23 15:07 43.73990 -3.37772 37001 ft 431 kts 320°
2026-04-23 15:08 43.78795 -3.42653 37013 ft 431 kts 321°
2026-04-23 15:09 43.86029 -3.50073 37015 ft 431 kts 320°
2026-04-23 15:09 43.90860 -3.55048 37032 ft 435 kts 320°
2026-04-23 15:09 43.93295 -3.57557 37149 ft 438 kts 320°
2026-04-23 15:10 43.94909 -3.59222 37319 ft 437 kts 320°
2026-04-23 15:10 43.98172 -3.62590 37763 ft 434 kts 320°
2026-04-23 15:10 44.00586 -3.65084 38036 ft 433 kts 320°
2026-04-23 15:11 44.05450 -3.70125 38019 ft 436 kts 320°
2026-04-23 15:11 44.10285 -3.75142 38011 ft 432 kts 320°
2026-04-23 15:12 44.15078 -3.80129 38009 ft 428 kts 320°
2026-04-23 15:12 44.19835 -3.85086 38024 ft 428 kts 320°
2026-04-23 15:13 44.24643 -3.90113 38043 ft 436 kts 320°
2026-04-23 15:13 44.29489 -3.95183 38032 ft 440 kts 320°
2026-04-23 15:14 44.34599 -3.99928 38015 ft 446 kts 332°
2026-04-23 15:14 44.40322 -4.03357 38034 ft 447 kts 334°
2026-04-23 15:15 44.46069 -4.06679 38030 ft 446 kts 334°
2026-04-23 15:15 44.51782 -4.10040 38017 ft 444 kts 334°
2026-04-23 15:16 44.57459 -4.13431 38045 ft 442 kts 334°
2026-04-23 15:16 44.63103 -4.16825 38030 ft 440 kts 334°
2026-04-23 15:17 44.68718 -4.20212 38033 ft 438 kts 334°
2026-04-23 15:17 44.74314 -4.23595 38049 ft 437 kts 334°
2026-04-23 15:18 44.79890 -4.26969 38041 ft 436 kts 334°
2026-04-23 15:18 44.85455 -4.30342 38042 ft 435 kts 334°
2026-04-23 15:19 44.91023 -4.33726 38053 ft 436 kts 334°
2026-04-23 15:19 44.96605 -4.37120 38041 ft 437 kts 334°
2026-04-23 15:20 45.01254 -4.39960 38066 ft 438 kts 334°
2026-04-23 15:20 45.07755 -4.43937 38048 ft 438 kts 334°
2026-04-23 15:21 45.13353 -4.47368 38054 ft 439 kts 334°
2026-04-23 15:21 45.18970 -4.50817 38060 ft 442 kts 334°
2026-04-23 15:22 45.24626 -4.54296 38064 ft 442 kts 334°
2026-04-23 15:22 45.30267 -4.57778 38066 ft 442 kts 334°
2026-04-23 15:23 45.35906 -4.61264 38058 ft 441 kts 334°
2026-04-23 15:23 45.41526 -4.64746 38063 ft 440 kts 334°
2026-04-23 15:24 45.46187 -4.67638 38067 ft 439 kts 334°
2026-04-23 15:24 45.52690 -4.71684 38078 ft 439 kts 334°
2026-04-23 15:25 45.58290 -4.75176 38073 ft 439 kts 334°
2026-04-23 15:25 45.62985 -4.78111 38082 ft 440 kts 334°
2026-04-23 15:26 45.68589 -4.81621 38089 ft 440 kts 334°
2026-04-23 15:26 45.74206 -4.85147 38085 ft 441 kts 334°
2026-04-23 15:27 45.79812 -4.88672 38078 ft 442 kts 334°
2026-04-23 15:27 45.85449 -4.92225 38084 ft 443 kts 334°
2026-04-23 15:28 45.91098 -4.95792 38087 ft 443 kts 334°
2026-04-23 15:28 45.96747 -4.99369 38084 ft 444 kts 334°
2026-04-23 15:29 46.02405 -5.02958 38088 ft 444 kts 334°
2026-04-23 15:29 46.08053 -5.06551 38090 ft 444 kts 334°
2026-04-23 15:30 46.13707 -5.10156 38093 ft 444 kts 334°
2026-04-23 15:30 46.19356 -5.13764 38092 ft 444 kts 334°
2026-04-23 15:31 46.25007 -5.17382 38099 ft 444 kts 334°
2026-04-23 15:31 46.30648 -5.21002 38103 ft 444 kts 334°
2026-04-23 15:32 46.36295 -5.24634 38091 ft 444 kts 334°
2026-04-23 15:32 46.41935 -5.28270 38103 ft 444 kts 334°
2026-04-23 15:33 46.47581 -5.31919 38105 ft 444 kts 334°
2026-04-23 15:33 46.53232 -5.35579 38108 ft 445 kts 333°
2026-04-23 15:34 46.58861 -5.39233 38104 ft 446 kts 334°
2026-04-23 15:34 46.64795 -5.41857 38114 ft 449 kts 348°
2026-04-23 15:35 46.70971 -5.43289 38108 ft 450 kts 349°
2026-04-23 15:35 46.77167 -5.44685 38108 ft 450 kts 349°
2026-04-23 15:36 46.83347 -5.46137 38106 ft 450 kts 349°
2026-04-23 15:36 46.89534 -5.47631 38106 ft 450 kts 349°
2026-04-23 15:37 46.95711 -5.49135 38111 ft 450 kts 348°
2026-04-23 15:37 47.01898 -5.50646 38110 ft 450 kts 348°
2026-04-23 15:38 47.08076 -5.52162 38115 ft 450 kts 348°
2026-04-23 15:38 47.14250 -5.53673 38116 ft 450 kts 348°
2026-04-23 15:39 47.20438 -5.55191 38113 ft 451 kts 348°
2026-04-23 15:39 47.26638 -5.56717 38127 ft 451 kts 348°
2026-04-23 15:40 47.32826 -5.58246 38121 ft 451 kts 348°
2026-04-23 15:40 47.38983 -5.59769 38121 ft 451 kts 348°
2026-04-23 15:41 47.45176 -5.61305 38127 ft 452 kts 348°
2026-04-23 15:41 47.51376 -5.62847 38137 ft 451 kts 348°
2026-04-23 15:42 47.57573 -5.64389 38127 ft 451 kts 348°
2026-04-23 15:42 47.63765 -5.65935 38125 ft 451 kts 348°
2026-04-23 15:43 47.69946 -5.67485 38139 ft 450 kts 348°
2026-04-23 15:43 47.76124 -5.69034 38137 ft 450 kts 348°
2026-04-23 15:44 47.82292 -5.70586 38130 ft 450 kts 348°
2026-04-23 15:44 47.88466 -5.72142 38133 ft 449 kts 348°
2026-04-23 15:45 47.94621 -5.73699 38144 ft 448 kts 348°
2026-04-23 15:45 48.00771 -5.75259 38147 ft 448 kts 349°
2026-04-23 15:46 48.06876 -5.76807 38143 ft 448 kts 348°
2026-04-23 15:46 48.13018 -5.78371 38153 ft 448 kts 348°
2026-04-23 15:47 48.19161 -5.79939 38148 ft 448 kts 349°
2026-04-23 15:47 48.25302 -5.81510 38153 ft 447 kts 349°
2026-04-23 15:48 48.31438 -5.83084 38161 ft 447 kts 349°
2026-04-23 15:48 48.37586 -5.84665 38157 ft 447 kts 349°
2026-04-23 15:49 48.43714 -5.86245 38160 ft 447 kts 349°
2026-04-23 15:49 48.49842 -5.87828 38152 ft 446 kts 349°
2026-04-23 15:50 48.55962 -5.89411 38153 ft 446 kts 348°
2026-04-23 15:50 48.62079 -5.91001 38172 ft 446 kts 348°
2026-04-23 15:51 48.68200 -5.92595 38174 ft 446 kts 348°
2026-04-23 15:51 48.74317 -5.94190 38163 ft 447 kts 348°
2026-04-23 15:52 48.80410 -5.95783 38169 ft 447 kts 348°
2026-04-23 15:52 48.86546 -5.97392 38174 ft 447 kts 348°
2026-04-23 15:53 48.92690 -5.99008 38179 ft 448 kts 348°
2026-04-23 15:53 48.98843 -6.00635 38161 ft 449 kts 348°
2026-04-23 15:54 49.04999 -6.02258 38170 ft 450 kts 348°
2026-04-23 15:54 49.11178 -6.03893 38196 ft 451 kts 348°
2026-04-23 15:55 49.17369 -6.05539 38191 ft 452 kts 348°
2026-04-23 15:55 49.23563 -6.07187 38173 ft 453 kts 348°
2026-04-23 15:56 49.29765 -6.08841 38180 ft 452 kts 348°
2026-04-23 15:56 49.35965 -6.10500 38201 ft 452 kts 348°
2026-04-23 15:57 49.42164 -6.12162 38197 ft 452 kts 348°
2026-04-23 15:57 49.48353 -6.13832 38185 ft 451 kts 347°
2026-04-23 15:57 49.51349 -6.15174 38196 ft 447 kts 334°
2026-04-23 15:58 49.54081 -6.17402 38204 ft 444 kts 323°
2026-04-23 15:58 49.58621 -6.23702 38211 ft 439 kts 310°
2026-04-23 15:59 49.62820 -6.30522 38210 ft 439 kts 310°
2026-04-23 15:59 49.67005 -6.37296 38206 ft 439 kts 310°
2026-04-23 16:00 49.71244 -6.44101 38214 ft 440 kts 311°
2026-04-23 16:00 49.75494 -6.50910 38207 ft 441 kts 311°
2026-04-23 16:01 49.79753 -6.57746 38217 ft 442 kts 311°
2026-04-23 16:01 49.84028 -6.64627 38205 ft 443 kts 310°
2026-04-23 16:02 49.88301 -6.71525 38218 ft 444 kts 311°
2026-04-23 16:02 49.92587 -6.78466 38213 ft 445 kts 311°
2026-04-23 16:03 49.96870 -6.85418 38211 ft 446 kts 311°
2026-04-23 16:03 50.01154 -6.92391 38208 ft 446 kts 311°
2026-04-23 16:04 50.05435 -6.99379 38200 ft 446 kts 310°
2026-04-23 16:04 50.09712 -7.06381 38215 ft 446 kts 311°
2026-04-23 16:05 50.13265 -7.12213 38221 ft 446 kts 310°
2026-04-23 16:05 50.18229 -7.20378 38212 ft 446 kts 311°
2026-04-23 16:06 50.22493 -7.27416 38204 ft 446 kts 310°
2026-04-23 16:06 50.26744 -7.34454 38210 ft 444 kts 310°
2026-04-23 16:06 50.28871 -7.37983 37859 ft 449 kts 310°
2026-04-23 16:07 50.31001 -7.41521 37394 ft 446 kts 310°
2026-04-23 16:07 50.33127 -7.45056 36882 ft 445 kts 310°
2026-04-23 16:07 50.35244 -7.48580 36341 ft 444 kts 310°
2026-04-23 16:07 50.37357 -7.52105 35787 ft 444 kts 310°
2026-04-23 16:08 50.39468 -7.55632 35203 ft 445 kts 310°
2026-04-23 16:08 50.41584 -7.59173 34619 ft 446 kts 310°
2026-04-23 16:08 50.43710 -7.62734 33984 ft 447 kts 310°
2026-04-23 16:08 50.45840 -7.66307 33296 ft 448 kts 310°
2026-04-23 16:09 50.47969 -7.69881 32631 ft 449 kts 310°
2026-04-23 16:09 50.50106 -7.73476 31966 ft 450 kts 310°
2026-04-23 16:09 50.52240 -7.77070 31427 ft 448 kts 310°
2026-04-23 16:09 50.54356 -7.80635 30973 ft 444 kts 310°
2026-04-23 16:10 50.56453 -7.84182 30493 ft 441 kts 310°
2026-04-23 16:10 50.58531 -7.87699 29996 ft 437 kts 310°
2026-04-23 16:10 50.60596 -7.91193 29489 ft 434 kts 310°
2026-04-23 16:10 50.62639 -7.94652 29015 ft 431 kts 311°
2026-04-23 16:11 50.64090 -7.96798 28660 ft 433 kts 321°
2026-04-23 16:11 50.66696 -7.99160 28204 ft 433 kts 337°
2026-04-23 16:11 50.69587 -8.00422 27719 ft 431 kts 353°
2026-04-23 16:11 50.72575 -8.00662 27266 ft 429 kts 358°
2026-04-23 16:12 50.75550 -8.00799 26774 ft 426 kts 358°
2026-04-23 16:12 50.78500 -8.00909 26311 ft 424 kts 358°
2026-04-23 16:12 50.81457 -8.01050 25864 ft 423 kts 358°
2026-04-23 16:12 50.84387 -8.01221 25397 ft 421 kts 358°
2026-04-23 16:13 50.87304 -8.01409 24946 ft 419 kts 358°
2026-04-23 16:13 50.93101 -8.01796 24037 ft 415 kts 358°
2026-04-23 16:13 50.95985 -8.01989 23525 ft 414 kts 358°
2026-04-23 16:14 50.98859 -8.02180 23018 ft 412 kts 358°
2026-04-23 16:14 51.01706 -8.02370 22542 ft 409 kts 358°
2026-04-23 16:14 51.04548 -8.02559 22092 ft 406 kts 358°
2026-04-23 16:14 51.07356 -8.02741 21634 ft 403 kts 358°
2026-04-23 16:15 51.10110 -8.02925 21181 ft 400 kts 358°
2026-04-23 16:15 51.12922 -8.03114 20741 ft 398 kts 359°
2026-04-23 16:15 51.15643 -8.03296 20307 ft 396 kts 359°
2026-04-23 16:15 51.18388 -8.03479 19880 ft 394 kts 359°
2026-04-23 16:16 51.21114 -8.03662 19446 ft 391 kts 359°
2026-04-23 16:16 51.23831 -8.03844 19016 ft 390 kts 359°
2026-04-23 16:16 51.26539 -8.04025 18592 ft 388 kts 359°
2026-04-23 16:16 51.29240 -8.04204 18090 ft 388 kts 359°
2026-04-23 16:17 51.31928 -8.04379 17624 ft 386 kts 359°
2026-04-23 16:17 51.34603 -8.04561 17186 ft 383 kts 359°
2026-04-23 16:17 51.37261 -8.04741 16750 ft 381 kts 359°
2026-04-23 16:17 51.39898 -8.04917 16325 ft 378 kts 359°
2026-04-23 16:18 51.42524 -8.05094 15901 ft 376 kts 359°
2026-04-23 16:18 51.45131 -8.05273 15483 ft 374 kts 359°
2026-04-23 16:18 51.47719 -8.05451 15075 ft 372 kts 359°
2026-04-23 16:18 51.50300 -8.05625 14659 ft 370 kts 359°
2026-04-23 16:19 51.52868 -8.05798 14241 ft 369 kts 359°
2026-04-23 16:19 51.55428 -8.05991 13797 ft 369 kts 356°
2026-04-23 16:19 51.57908 -8.07013 13326 ft 370 kts 337°
2026-04-23 16:19 51.60244 -8.08711 12905 ft 367 kts 336°
2026-04-23 16:20 51.62566 -8.10427 12471 ft 366 kts 336°
2026-04-23 16:20 51.64874 -8.12123 12057 ft 364 kts 336°
2026-04-23 16:20 51.67175 -8.13793 11642 ft 361 kts 336°
2026-04-23 16:20 51.69429 -8.15416 11236 ft 358 kts 337°
2026-04-23 16:21 51.71728 -8.17062 10840 ft 355 kts 337°
2026-04-23 16:21 51.73934 -8.18641 10655 ft 347 kts 337°
2026-04-23 16:21 51.76109 -8.20199 10494 ft 337 kts 337°
2026-04-23 16:21 51.78221 -8.21712 10345 ft 328 kts 337°
2026-04-23 16:22 51.80283 -8.23187 10135 ft 320 kts 337°
2026-04-23 16:22 51.82292 -8.24627 9792 ft 311 kts 337°
2026-04-23 16:22 51.84244 -8.26029 9379 ft 307 kts 337°
2026-04-23 16:22 51.86209 -8.27443 8973 ft 309 kts 337°
2026-04-23 16:23 51.88179 -8.28860 8639 ft 310 kts 337°
2026-04-23 16:23 51.90145 -8.30274 8285 ft 310 kts 337°
2026-04-23 16:23 51.92115 -8.31682 7964 ft 308 kts 337°
2026-04-23 16:23 51.94067 -8.33135 7641 ft 308 kts 337°
2026-04-23 16:24 51.96019 -8.34538 7341 ft 307 kts 338°
2026-04-23 16:24 51.97971 -8.35933 7033 ft 306 kts 338°
2026-04-23 16:24 51.99917 -8.37332 6729 ft 305 kts 338°
2026-04-23 16:24 52.01858 -8.38737 6414 ft 305 kts 337°
2026-04-23 16:25 52.03775 -8.40133 6252 ft 299 kts 335°
2026-04-23 16:25 52.05441 -8.42108 6131 ft 298 kts 308°
2026-04-23 16:25 52.06399 -8.45039 5908 ft 294 kts 280°
2026-04-23 16:25 52.06519 -8.48289 5521 ft 292 kts 256°
2026-04-23 16:26 52.06010 -8.51425 5111 ft 283 kts 244°
2026-04-23 16:26 52.05323 -8.54370 4755 ft 275 kts 242°
2026-04-23 16:26 52.04647 -8.57217 4430 ft 265 kts 242°
2026-04-23 16:26 52.03664 -8.59557 4195 ft 237 kts 209°
2026-04-23 16:27 52.02231 -8.60320 4040 ft 208 kts 170°
2026-04-23 16:27 52.00964 -8.59497 3858 ft 194 kts 147°
2026-04-23 16:27 51.99781 -8.58491 3601 ft 190 kts 154°
2026-04-23 16:27 51.98574 -8.57687 3335 ft 185 kts 155°
2026-04-23 16:28 51.97388 -8.56958 3087 ft 179 kts 156°
2026-04-23 16:28 51.96236 -8.56272 2844 ft 174 kts 156°
2026-04-23 16:28 51.95111 -8.55607 2618 ft 170 kts 156°
2026-04-23 16:28 51.94021 -8.54963 2400 ft 165 kts 155°
2026-04-23 16:29 51.92962 -8.54338 2173 ft 158 kts 154°
2026-04-23 16:29 51.91947 -8.53737 1948 ft 151 kts 153°
2026-04-23 16:29 51.90986 -8.53168 1753 ft 146 kts 154°
2026-04-23 16:29 51.90039 -8.52608 1556 ft 140 kts 153°
2026-04-23 16:30 51.89150 -8.52081 1366 ft 136 kts 153°
2026-04-23 16:30 51.88265 -8.51557 1180 ft 137 kts 154°
2026-04-23 16:30 51.87362 -8.51025 979 ft 141 kts 154°
2026-04-23 16:30 51.86439 -8.50469 804 ft 142 kts 154°
2026-04-23 16:31 51.85505 -8.49929 631 ft 143 kts 155°
2026-04-23 16:31 51.84585 -8.49373 485 ft 129 kts 161°
2026-04-23 16:31 51.83942 -8.48998 471 ft 68 kts 160°
2026-04-23 16:31 51.83698 -8.48853 465 ft 11 kts 151°
2026-04-23 16:32 51.83651 -8.48801 467 ft 4 kts 169°
2026-04-23 16:32 51.83643 -8.48815 467 ft 2 kts 249°
2026-04-23 16:32 51.83660 -8.48830 466 ft 6 kts 339°
2026-04-23 16:32 51.83725 -8.48868 467 ft 15 kts 341°
2026-04-23 16:33 51.83849 -8.48942 468 ft 23 kts 340°
2026-04-23 16:33 51.84020 -8.49042 472 ft 29 kts 340°
2026-04-23 16:33 51.84224 -8.49164 478 ft 32 kts 340°
2026-04-23 16:33 51.84424 -8.49282 483 ft 29 kts 340°
2026-04-23 16:34 51.84605 -8.49389 490 ft 22 kts 340°
2026-04-23 16:34 51.84712 -8.49453 488 ft 10 kts 340°
2026-04-23 16:34 51.84772 -8.49436 484 ft 10 kts 54°
2026-04-23 16:34 51.84795 -8.49338 486 ft 9 kts 70°
2026-04-23 16:35 51.84822 -8.49245 500 ft 9 kts 44°
2026-04-23 16:35 51.84878 -8.49243 502 ft 5 kts 342°
2026-04-23 16:35 51.84910 -8.49236 502 ft 5 kts 44°
2026-04-23 16:35 51.84919 -8.49201 502 ft 3 kts 70°
2026-04-23 16:36 51.84926 -8.49169 502 ft 3 kts 70°
2026-04-23 16:36 51.84933 -8.49138 502 ft 3 kts 70°
2026-04-23 16:36 51.84938 -8.49116 502 ft 1 kts 70°
2026-04-23 16:36 51.84938 -8.49115 502 ft 0 kts 70°